Orange City, IA

8:26 AM CST on February 10, 2016 (GMT -0600)
NWC Rec Center | | Change Station
CLOSE
Current Station
Personal Weather Station
Location: Orange City, IA
Elevation: 1411 ft
Nearby Weather Stations

Elev 1411 ft 43.00 °N, 96.06 °W | Updated 0 second ago

Light Snow
Light Snow
17.8 °F
Feels Like 8 °F
N
7.4
Wind Variable Wind from ESE
Gusts 8.0 mph

Today
High -- | Low -- °F
--% Chance of Precip.
Yesterday
High -- | Low -- °F
Precip. -- in
Pressure 29.99 in
Visibility 0.8 miles
Clouds Overcast 600 ft
Windchill 8 °F
Dew Point 18 °F
Humidity 100%
Rainfall 0.00 in
Snow Depth Not available.
7:29 AM 5:48 PM
Waxing Crescent, 5% visible
METAR KORC 101415Z AUTO 12007KT 3/4SM -SN OVC006 M07/M08 A2999 RMK AO2
Pressure 29.99 in
Visibility 0.8 miles
Clouds Overcast 600 ft
Windchill 8 °F
Dew Point 18 °F
Humidity 100%
Rainfall 0.00 in
Snow Depth Not available.
7:29 AM 5:48 PM
Waxing Crescent, 5% visible
METAR KORC 101415Z AUTO 12007KT 3/4SM -SN OVC006 M07/M08 A2999 RMK AO2

10-Day Weather Forecast

Almanac

Astronomy

Feb. 10, 2016 Rise Set
Actual Time
Civil Twilight
Nautical Twilight
Astronomical Twilight
Moon
Length of Visible Light
Length of Day
Tomorrow will be .
, % of the Moon is Illuminated

Today's Extremes

State Highs State Lows

Community

WunderPhotos

Upload Photos

1,891,850 photos uploaded!

WunderBlog® & News

Nearby

Air Quality

  Air Quality AQ Index Pollutant
Not available.

Snow Depth

Station Depth Elevation

Earthquake Activity

City Distance Mag. Time & Date
Minimum magnitude displayed is 2.5.

Coastal Water Temperatures

Place Temperature

Stations

Nearby Weather Stations

Station Location Temp. Windchill Dew Point Humidity Wind Precip. Elev Updated Type
                   

Watches & Warnings

There are currently no watches in effect.